Vorticity
8 7 12 15 9 5 6 10 14 11 4 3 7 8 6 7 11 12 10 9 10 10 10 10 10 9 8 8 9 9 9 10 10 9 9 8 8 8 8 8 9 8 8 8 7 7 9 11 13 13 12 11 12 15 19 20 16 15 16 16 16 17 16 19 24 21 16 15 14 12 13 14 11 11 15 14 11 14 14 14 15 11 8 14 16
8 6 9 12 5 2 5 10 16 9 -1 2 8 9 7 8 13 12 8 8 9 8 7 6 7 8 10 10 10 10 9 9 8 8 8 9 9 8 8 9 8 8 8 8 8 9 11 14 15 12 11 13 14 16 19 18 14 14 15 14 14 16 16 16 19 22 19 14 16 17 15 15 13 10 12 14 12 13 14 12 16 18 10 8 18
7 5 9 9 3 3 6 10 13 4 -3 6 10 8 9 11 12 10 7 8 6 3 2 -0 0 4 7 9 9 9 8 9 10 10 9 10 10 8 8 8 8 8 8 9 8 10 13 15 15 13 13 14 15 17 21 19 15 15 14 14 13 14 14 15 17 21 21 17 16 19 19 17 15 13 12 13 13 13 14 13 13 18 16 8 12
7 7 11 7 1 3 5 8 11 1 -3 7 10 8 11 12 10 9 8 7 4 3 3 2 2 4 6 7 8 7 8 10 10 8 8 9 9 8 8 7 7 8 7 8 10 13 15 15 15 15 15 16 17 19 22 20 16 16 15 13 13 12 11 13 17 20 22 22 19 19 21 18 15 15 14 13 14 14 11 13 14 13 17 15 8
8 10 13 7 1 3 5 10 11 -1 -2 6 8 9 12 10 9 10 9 7 6 5 6 6 6 7 7 7 7 7 8 8 8 8 9 10 9 8 7 7 8 7 7 11 14 15 16 16 17 17 16 17 18 18 21 21 17 14 13 11 11 10 10 11 15 20 23 25 23 20 21 20 15 15 17 14 14 16 11 10 16 11 10 18 12
9 12 11 6 2 4 10 15 9 -4 -3 5 7 8 11 11 11 12 9 7 6 5 5 4 4 5 7 8 8 11 11 8 8 9 10 9 7 7 8 8 7 7 11 15 16 15 16 18 18 16 15 15 14 17 20 18 14 12 11 9 8 7 9 11 13 18 24 26 25 21 19 20 18 14 17 16 13 16 16 11 16 14 7 14 16
10 12 9 6 7 10 14 13 4 -3 0 5 6 8 10 12 12 10 7 4 3 3 2 2 4 6 9 9 10 12 10 6 7 9 9 8 7 8 9 8 7 12 15 14 14 16 18 19 18 15 13 13 12 16 18 14 11 10 8 6 8 8 8 10 13 17 24 27 25 21 18 20 20 15 14 17 14 15 18 14 14 17 11 10 14
8 7 6 6 9 13 12 8 2 2 5 7 6 7 11 12 10 7 5 3 3 3 3 5 6 8 9 9 11 10 8 9 11 11 8 7 9 9 8 8 11 15 14 13 15 18 18 19 19 15 12 13 13 15 15 11 8 8 9 10 12 12 11 12 14 16 25 31 26 21 18 17 20 18 13 15 15 13 19 18 12 13 15 11 10
4 5 7 9 12 10 2 1 6 7 8 7 6 9 12 10 7 6 5 4 4 4 5 6 6 7 9 9 11 11 10 12 12 9 6 8 9 9 8 12 15 13 12 14 17 19 20 22 20 15 13 13 14 15 13 10 8 8 11 13 12 11 11 13 15 16 25 33 28 21 19 15 16 18 14 12 13 12 18 23 13 8 15 14 7
0 4 7 10 13 6 -2 3 9 8 6 6 8 10 11 8 4 5 4 3 4 4 4 5 6 9 10 9 11 13 12 12 12 9 9 9 8 9 11 14 13 12 14 16 17 20 22 20 16 13 13 12 12 14 13 12 11 10 9 9 7 7 8 10 13 17 26 34 28 21 20 16 14 17 14 9 10 12 17 25 18 7 14 19 9
7 7 6 11 9 -0 3 10 8 6 8 8 9 10 8 5 4 3 3 2 4 4 4 6 8 10 9 7 9 11 9 10 10 9 8 7 8 11 13 13 12 15 18 16 16 22 21 15 13 14 11 9 11 13 12 9 8 9 9 9 9 9 9 10 12 18 28 34 26 18 20 19 14 17 17 10 10 14 17 24 22 8 11 20 13
-1 -6 3 18 5 -13 0 10 4 7 10 6 7 7 5 5 5 3 3 2 3 4 5 7 8 7 7 7 9 9 8 8 8 7 7 8 11 13 14 14 15 18 18 13 16 25 20 11 12 14 10 9 11 12 12 8 6 8 9 9 9 8 9 12 14 18 25 32 25 14 16 20 17 19 23 16 13 17 19 23 22 12 12 20 15
1 -8 10 26 -3 -25 -2 11 4 8 8 3 6 5 4 7 5 3 4 3 3 6 7 7 6 6 8 9 10 10 9 9 9 8 9 10 14 18 19 18 17 16 15 15 20 25 18 10 12 12 9 10 12 14 15 12 10 10 8 7 7 8 9 12 17 20 22 28 27 13 11 20 22 24 27 20 16 21 22 22 19 11 11 16 13
21 16 27 21 -16 -26 0 12 7 8 5 2 4 4 6 8 4 3 6 5 4 6 7 7 6 7 9 9 10 11 10 11 10 8 10 15 20 21 18 14 13 14 16 20 24 22 14 11 13 10 7 8 10 12 13 11 10 9 7 8 8 7 10 13 19 22 21 24 25 14 10 20 28 32 29 19 19 24 22 21 20 12 10 14 11
24 39 38 6 -22 -13 8 12 9 7 2 2 5 6 9 8 4 5 7 4 5 6 6 7 8 8 10 14 18 17 13 12 9 8 14 20 17 8 -1 -2 6 13 18 22 24 19 13 11 11 8 7 7 7 8 8 8 9 8 7 9 8 7 10 15 21 22 18 21 22 15 17 27 37 39 26 13 20 26 20 19 20 14 12 16 14
26 38 21 -10 -12 7 14 11 9 4 3 6 7 8 10 8 7 8 6 4 6 7 6 8 8 8 13 21 19 10 9 11 7 8 12 11 8 2 -9 -8 5 13 17 23 21 15 12 11 8 6 10 11 9 7 7 7 8 7 8 10 8 7 9 17 24 20 15 17 15 14 28 42 45 38 21 10 18 24 21 18 15 11 14 18 17
11 10 -13 -19 4 17 12 10 9 5 6 9 8 10 11 11 10 4 -1 1 7 8 8 9 8 8 15 19 7 -2 8 15 8 6 9 8 11 10 0 2 15 15 14 20 19 12 12 12 7 7 12 14 12 9 7 7 8 8 9 10 8 7 8 17 26 19 14 16 11 9 31 51 48 34 18 11 16 24 25 19 8 5 13 20 20
6 7 -10 -5 14 13 7 9 7 5 9 9 9 12 13 11 6 -4 -6 3 10 9 8 8 9 12 17 16 6 4 14 17 8 6 10 11 14 14 8 11 22 20 15 18 17 11 12 12 7 8 11 11 11 10 7 8 9 8 8 9 9 8 8 18 27 21 18 23 13 6 27 49 48 33 18 10 16 28 30 18 4 2 10 18 21
13 8 -1 8 14 6 3 6 4 5 8 10 13 15 14 11 2 -5 1 11 10 5 6 11 13 14 15 13 10 11 13 13 9 8 10 12 12 12 11 12 19 25 21 16 15 13 11 9 6 5 7 8 11 10 7 9 10 7 6 8 9 8 9 20 29 23 23 28 22 18 34 47 41 27 16 12 20 31 32 18 6 5 9 18 23
18 10 5 9 7 4 4 4 2 4 8 14 16 10 5 2 -2 1 8 9 6 8 13 15 12 11 12 11 10 12 12 11 10 8 11 14 11 10 11 11 21 32 24 13 14 14 9 7 6 7 7 8 10 9 7 10 10 6 5 7 9 8 11 20 25 23 27 31 26 29 40 42 32 20 15 17 25 32 30 17 7 7 11 20 25
24 11 3 2 2 6 7 3 2 5 10 13 5 -2 5 10 10 9 3 0 11 19 14 8 5 8 13 13 11 12 12 10 10 10 13 13 9 10 12 14 27 34 19 10 15 15 9 8 9 8 8 9 9 8 9 10 9 6 6 7 8 8 11 19 21 21 32 35 25 27 36 33 27 21 17 22 29 31 26 13 4 8 16 24 27
13 -3 -2 4 5 8 6 4 5 7 8 4 -5 -2 13 15 6 -1 -3 6 20 18 4 1 7 12 14 12 11 12 11 11 12 12 13 11 9 13 13 17 30 29 12 12 19 14 7 9 10 9 10 10 9 8 10 10 8 8 7 6 8 8 9 18 20 21 33 33 20 26 37 32 26 24 20 24 30 27 19 8 2 8 16 22 24
9 3 6 4 3 7 5 4 5 3 3 1 -3 0 3 -3 -3 6 15 20 14 0 -2 7 14 15 12 10 12 13 12 14 13 11 12 10 9 13 14 19 31 24 4 6 19 17 10 8 7 9 11 12 10 8 11 12 9 10 9 5 8 9 8 18 23 24 33 32 16 22 38 32 24 24 22 23 27 24 17 11 8 12 16 19 19
10 13 5 -4 2 8 4 3 4 2 3 3 2 2 -1 -3 8 18 17 10 -2 -6 6 15 13 12 12 11 13 12 10 12 11 9 12 9 8 14 16 20 29 23 2 -3 9 17 15 10 10 11 11 12 10 8 11 13 10 10 9 5 8 10 9 18 26 27 36 36 20 19 32 32 23 22 22 21 20 19 18 14 11 14 16 15 16
15 11 -4 -6 6 9 3 4 6 4 6 6 2 1 2 6 13 12 5 3 2 5 14 15 10 12 15 14 14 12 10 11 11 10 11 9 9 14 19 22 27 25 15 7 8 13 13 11 13 13 11 11 11 8 12 15 11 9 8 5 9 11 9 17 25 29 39 42 26 20 28 29 23 21 21 20 17 15 17 14 6 6 11 12 13
19 4 -8 -5 4 6 4 6 7 6 5 3 -0 3 8 10 10 8 6 9 11 12 14 14 13 16 18 14 12 12 12 12 13 12 11 9 11 14 20 26 27 24 21 17 13 12 12 11 11 10 10 11 10 9 14 16 11 8 7 6 8 9 8 14 22 30 40 41 29 23 26 24 23 22 18 18 20 16 13 12 5 -0 4 7 8
11 -1 -5 -4 0 6 7 6 6 5 3 5 8 11 13 10 6 8 10 12 14 15 15 15 15 17 17 14 12 12 11 11 13 13 10 10 12 15 21 26 26 22 18 16 13 11 11 10 9 10 11 10 9 11 16 16 11 9 7 6 6 6 5 10 18 26 36 38 30 28 30 24 20 21 16 13 20 20 12 12 14 6 3 7 8
5 -1 -3 -5 0 9 8 4 4 5 8 12 12 9 10 10 8 10 11 12 13 14 15 16 17 17 17 14 12 11 11 13 15 13 11 11 12 16 21 21 19 19 16 12 11 11 11 11 11 10 11 10 9 12 15 15 12 9 6 4 4 4 3 6 11 19 31 39 34 29 34 31 19 17 19 14 14 19 13 8 12 12 10 11 12
6 -3 -7 -4 5 10 6 4 8 9 9 9 5 6 11 11 9 11 12 14 15 15 15 17 17 16 15 13 12 12 12 15 16 12 11 12 11 14 19 17 14 16 16 10 9 11 12 12 12 12 11 11 11 12 14 14 11 7 5 3 3 4 4 3 6 11 21 37 40 31 38 45 27 11 16 17 10 14 18 12 9 11 12 13 14
9 -6 -11 0 11 10 6 9 11 8 7 7 8 11 12 9 9 13 14 15 15 14 16 18 18 17 15 13 14 14 13 15 16 12 12 13 10 13 18 15 10 12 13 8 6 9 11 11 11 13 12 11 11 13 13 12 9 4 4 4 2 4 4 1 5 8 9 26 43 37 36 50 42 15 8 14 11 8 14 17 14 11 10 14 17
5 -10 -7 8 13 8 7 10 9 8 10 10 9 8 8 9 12 13 11 12 14 15 17 19 17 16 15 15 15 14 12 15 17 14 14 14 10 11 18 17 10 9 11 7 2 4 10 12 11 11 11 10 12 13 11 10 7 3 4 5 3 4 5 1 3 7 4 12 33 40 36 44 49 30 11 9 11 9 10 13 13 10 9 11 14
4 -5 5 14 13 10 10 10 9 10 10 9 8 8 10 12 12 11 12 16 19 19 18 17 15 14 14 13 12 12 14 17 18 15 16 16 10 9 15 18 13 8 8 7 3 2 7 12 12 11 10 10 12 12 9 8 7 4 3 5 4 3 5 3 1 6 5 4 15 31 37 40 46 42 27 14 8 10 13 12 8 7 9 9 7
3 7 13 12 10 13 12 10 11 11 9 10 13 13 12 11 11 13 18 21 21 18 16 15 15 15 13 12 11 13 16 19 19 18 17 16 12 8 12 20 23 18 9 4 4 6 9 12 11 10 10 10 10 10 9 7 6 6 4 4 5 3 4 5 2 2 5 5 5 14 27 36 41 45 45 36 18 6 9 15 12 7 9 10 7
6 12 11 8 8 9 8 8 11 10 10 15 17 13 10 10 13 19 21 19 16 14 13 14 15 14 13 12 11 13 16 17 19 19 17 16 14 11 9 14 24 30 25 16 10 8 9 11 11 8 9 10 9 9 9 7 6 7 5 4 5 4 3 4 4 2 3 6 5 5 11 22 33 40 49 54 42 17 6 10 10 6 9 14 10
10 9 7 8 8 7 9 10 9 7 11 15 12 9 10 13 17 22 20 14 12 12 13 14 12 10 11 12 11 13 17 19 22 23 20 16 13 10 7 7 9 17 25 25 20 13 8 8 10 9 8 9 8 8 9 8 6 7 7 5 5 5 4 3 4 4 3 3 5 6 5 8 18 28 39 53 55 38 19 9 6 10 19 23 19
10 8 8 9 9 10 12 10 6 6 9 9 6 7 12 16 20 20 16 11 12 14 14 11 10 9 11 11 11 14 18 20 23 24 19 12 8 6 6 8 7 6 10 16 20 21 16 10 9 9 8 8 8 6 7 8 7 7 7 7 5 5 6 5 3 4 5 3 3 6 6 5 7 12 22 37 50 51 41 28 19 18 23 21 15
12 10 9 8 8 7 6 5 5 5 5 6 7 8 12 17 20 18 13 11 13 14 11 9 10 11 11 11 13 17 17 15 18 18 11 4 3 4 5 7 9 9 9 9 13 20 21 15 10 8 8 9 8 6 5 7 7 7 6 7 7 5 5 6 5 4 4 4 3 3 5 6 5 5 8 17 32 44 49 46 36 27 28 31 23
6 6 7 7 6 5 4 6 8 8 8 9 10 11 14 19 20 16 12 11 12 12 10 10 10 11 12 13 14 14 11 12 16 14 4 -2 1 7 9 9 9 10 12 11 11 14 20 20 15 10 9 9 9 7 6 6 6 7 6 6 6 6 5 5 6 5 4 4 4 3 3 4 5 6 5 6 13 24 35 44 44 33 28 37 41
4 8 9 8 7 8 9 10 11 12 12 11 13 16 19 20 17 13 11 10 10 11 11 11 11 12 12 14 13 11 13 19 20 9 -1 -1 6 12 13 12 10 10 13 14 12 11 14 19 20 16 13 12 10 9 8 7 7 8 8 6 6 7 6 5 5 5 5 4 4 4 4 4 4 5 6 5 6 9 14 23 34 36 32 31 35
8 7 6 7 9 9 8 9 10 12 12 12 16 19 19 16 14 12 11 10 10 12 13 12 11 11 12 13 14 13 15 20 16 5 2 9 14 14 13 13 11 11 12 14 15 14 12 14 17 17 15 14 12 11 10 9 8 7 7 7 7 7 7 7 6 6 6 6 5 4 5 4 4 4 5 5 5 6 7 9 13 21 29 35 35
6 5 7 9 8 6 5 7 11 12 10 12 17 18 17 15 13 11 10 11 11 12 13 12 11 11 12 13 15 14 13 12 11 9 12 15 13 10 12 13 11 10 10 11 13 15 14 14 14 15 14 13 12 11 10 9 8 7 7 7 8 7 7 8 8 7 7 7 7 6 5 5 5 5 5 5 5 4 5 8 7 6 11 21 31
6 9 10 6 5 8 10 11 15 14 11 12 16 18 18 18 13 9 10 12 10 11 13 13 11 11 11 12 14 14 12 10 10 11 13 13 12 11 12 13 12 11 9 9 10 12 13 14 15 15 15 13 11 10 10 9 8 7 7 8 8 8 8 8 8 8 8 8 8 8 7 6 6 6 5 6 6 5 4 4 7 8 6 7 14
9 14 13 8 9 13 11 9 10 11 10 12 18 22 23 19 13 9 10 11 10 11 13 12 10 10 11 11 11 12 11 11 11 12 12 12 13 13 12 13 13 12 10 9 10 11 12 13 15 15 16 16 14 13 12 11 10 9 9 9 9 9 9 9 9 8 8 9 8 8 8 7 7 7 7 5 5 6 6 5 4 6 7 5 6
12 15 14 13 15 13 10 11 15 16 15 16 20 22 19 14 11 11 11 11 11 11 11 12 12 11 10 11 13 13 13 13 12 12 13 13 13 13 13 12 12 11 11 11 11 10 11 12 12 13 14 15 15 15 15 14 14 13 11 10 10 10 10 10 10 9 8 8 8 8 8 8 7 6 7 7 6 5 5 6 6 6 6 8 7
13 14 14 15 17 16 17 22 26 26 23 20 18 17 13 11 11 11 11 11 11 11 11 11 11 11 13 15 15 14 13 13 13 12 13 14 14 14 14 12 10 11 12 11 10 10 10 10 10 11 11 11 11 12 13 13 14 14 13 10 10 10 10 9 9 9 8 8 8 7 7 7 7 7 6 6 7 7 5 5 5 5 5 6 8
14 16 16 16 17 22 31 32 27 23 21 17 13 12 11 10 11 11 10 12 13 13 11 10 11 14 17 17 15 13 13 14 14 12 11 12 13 12 11 11 10 10 10 10 10 10 9 9 9 9 9 9 9 9 10 10 10 11 11 11 9 9 9 9 8 8 8 8 8 8 7 7 7 8 8 7 6 7 7 6 6 5 5 5 6
15 15 17 14 11 17 29 29 19 14 14 12 10 11 12 11 11 11 12 14 13 10 9 10 11 13 16 15 12 12 13 13 13 11 10 11 11 10 10 10 10 9 9 10 9 9 10 10 10 10 9 10 11 10 10 10 10 9 10 11 10 9 9 9 9 9 9 9 8 8 9 9 8 8 9 9 8 8 7 7 6 6 6 5 5
13 13 16 16 11 12 18 18 14 13 13 11 10 11 12 11 13 13 13 13 12 10 10 11 11 12 16 17 15 13 13 13 12 11 10 9 10 10 11 11 10 10 11 10 9 9 10 9 10 10 9 9 10 10 9 9 10 10 10 11 11 11 11 11 11 11 10 10 11 10 10 10 10 10 10 10 9 9 9 9 8 8 7 7 6
12 13 16 17 17 15 13 12 12 13 13 13 13 13 12 11 12 12 11 11 11 10 11 12 13 14 17 17 15 13 13 12 10 9 9 10 10 10 10 10 11 12 12 11 11 11 11 11 12 12 11 9 9 10 10 10 11 12 13 13 13 14 14 14 14 14 13 12 12 12 12 12 12 12 12 12 11 10 10 9 9 9 9 9 8
12 14 16 18 18 16 14 14 14 12 12 13 14 14 13 12 12 11 11 11 12 11 11 12 14 16 17 16 14 12 11 10 10 10 10 10 10 10 12 14 16 16 17 17 16 15 14 15 16 15 13 11 11 11 13 15 16 17 17 17 17 17 18 17 17 16 16 16 15 14 14 14 13 12 12 12 13 12 11 10 10 10 10 10 11
15 16 15 14 14 14 14 15 14 13 15 16 16 15 16 15 14 14 14 14 16 18 17 15 16 17 17 14 11 10 10 11 11 11 11 12 14 17 19 21 22 22 21 20 20 18 17 18 18 18 18 18 19 19 20 20 19 19 19 19 18 17 18 18 18 18 17 18 17 16 16 15 14 14 14 13 12 12 12 11 11 10 10 10 10
Height
5890 5890 5890 5890 5889 5888 5887 5886 5885 5884 5883 5881 5879 5876 5875 5874 5872 5870 5868 5866 5864 5863 5861 5859 5857 5855 5853 5851 5849 5847 5844 5842 5839 5837 5835 5832 5830 5827 5824 5822 5819 5817 5814 5812 5810 5807 5804 5801 5797 5794 5792 5789 5786 5783 5781 5778 5776 5773 5771 5770 5768 5765 5765 5764 5765 5769 5771 5770 5770 5772 5771 5770 5772 5774 5775 5778 5781 5782 5784 5788 5792 5796 5799 5803 5807
5888 5887 5886 5886 5885 5884 5883 5882 5880 5879 5878 5876 5874 5872 5871 5870 5869 5868 5866 5864 5862 5859 5857 5855 5853 5851 5849 5847 5845 5842 5839 5837 5834 5832 5829 5827 5825 5822 5819 5816 5813 5811 5808 5806 5803 5800 5797 5794 5791 5788 5785 5782 5779 5777 5775 5772 5770 5768 5765 5763 5762 5760 5758 5758 5757 5760 5763 5763 5762 5763 5763 5762 5765 5767 5767 5770 5773 5774 5776 5781 5785 5788 5792 5796 5799
5885 5884 5882 5882 5881 5880 5879 5877 5876 5875 5874 5872 5870 5869 5868 5867 5866 5865 5863 5861 5859 5856 5854 5852 5850 5847 5844 5842 5839 5837 5834 5832 5829 5827 5824 5822 5819 5817 5814 5810 5807 5805 5802 5799 5796 5793 5790 5786 5783 5780 5778 5775 5773 5771 5768 5766 5764 5762 5760 5758 5757 5755 5753 5752 5751 5751 5754 5756 5754 5755 5755 5755 5757 5760 5759 5761 5765 5767 5769 5774 5778 5781 5784 5788 5792
5882 5880 5878 5877 5877 5876 5875 5873 5872 5872 5871 5869 5868 5866 5865 5864 5862 5861 5859 5857 5855 5852 5850 5847 5845 5843 5840 5838 5835 5832 5830 5828 5825 5821 5819 5817 5814 5811 5808 5805 5802 5799 5796 5793 5790 5786 5783 5780 5776 5773 5771 5769 5767 5764 5762 5760 5758 5756 5755 5752 5751 5750 5749 5747 5745 5744 5745 5747 5747 5747 5747 5747 5749 5751 5752 5754 5757 5760 5763 5767 5771 5774 5777 5781 5785
5879 5876 5874 5873 5873 5872 5871 5871 5870 5869 5868 5867 5865 5863 5861 5859 5858 5857 5855 5852 5850 5847 5844 5842 5840 5838 5836 5834 5831 5828 5825 5823 5820 5816 5814 5811 5808 5805 5803 5800 5797 5793 5790 5787 5783 5779 5776 5774 5770 5767 5765 5763 5761 5759 5757 5755 5753 5751 5749 5747 5746 5745 5744 5741 5739 5738 5738 5739 5739 5739 5739 5740 5741 5743 5745 5747 5750 5752 5755 5759 5764 5767 5770 5774 5778
5875 5872 5870 5869 5869 5869 5868 5868 5867 5866 5865 5863 5861 5859 5857 5855 5854 5852 5850 5847 5845 5842 5839 5837 5835 5833 5831 5828 5826 5823 5820 5818 5815 5812 5809 5806 5803 5800 5797 5794 5791 5787 5784 5780 5776 5772 5769 5767 5764 5762 5760 5758 5756 5754 5752 5750 5749 5747 5745 5743 5741 5740 5738 5736 5734 5732 5731 5731 5731 5731 5731 5732 5733 5735 5737 5738 5742 5745 5748 5752 5756 5760 5763 5767 5771
5871 5869 5867 5867 5867 5866 5865 5864 5864 5863 5862 5859 5857 5855 5853 5851 5849 5848 5845 5842 5840 5837 5834 5832 5830 5828 5825 5823 5820 5818 5815 5813 5810 5807 5804 5801 5798 5795 5792 5788 5785 5781 5778 5774 5770 5766 5763 5760 5758 5756 5755 5754 5751 5749 5748 5746 5744 5742 5740 5738 5736 5734 5732 5730 5727 5726 5724 5724 5723 5723 5723 5725 5726 5727 5729 5730 5734 5738 5741 5744 5749 5753 5756 5760 5764
5867 5865 5865 5865 5865 5863 5862 5862 5861 5860 5858 5856 5853 5851 5849 5847 5845 5843 5841 5838 5835 5832 5829 5827 5825 5822 5820 5818 5816 5813 5810 5808 5805 5802 5798 5796 5793 5790 5787 5783 5780 5775 5772 5768 5764 5760 5757 5755 5753 5751 5750 5749 5747 5745 5743 5742 5740 5738 5736 5733 5731 5729 5726 5723 5721 5719 5718 5716 5716 5715 5715 5717 5718 5720 5721 5722 5726 5730 5733 5737 5742 5746 5749 5752 5757
5863 5862 5862 5862 5861 5860 5860 5859 5858 5856 5854 5851 5849 5847 5845 5843 5841 5838 5835 5833 5830 5827 5825 5823 5820 5817 5815 5813 5810 5808 5805 5803 5800 5797 5794 5791 5788 5785 5782 5779 5775 5770 5766 5763 5759 5756 5753 5751 5749 5747 5745 5744 5742 5741 5739 5737 5736 5734 5731 5729 5726 5723 5720 5716 5714 5712 5711 5710 5709 5709 5708 5709 5710 5712 5714 5715 5718 5723 5726 5729 5734 5739 5741 5744 5750
5858 5858 5858 5858 5857 5856 5856 5855 5854 5852 5849 5846 5844 5842 5841 5838 5836 5833 5831 5828 5825 5822 5820 5818 5816 5813 5810 5807 5805 5803 5800 5798 5795 5792 5789 5786 5783 5780 5777 5774 5770 5766 5762 5758 5755 5752 5749 5747 5745 5742 5741 5740 5738 5736 5734 5732 5731 5729 5726 5723 5720 5717 5713 5709 5706 5704 5703 5703 5703 5702 5702 5702 5703 5705 5707 5709 5711 5714 5718 5721 5726 5731 5733 5737 5743
5854 5854 5853 5852 5851 5850 5850 5850 5848 5846 5843 5841 5839 5837 5835 5833 5831 5829 5827 5823 5820 5818 5816 5814 5811 5808 5805 5803 5801 5798 5796 5793 5790 5787 5784 5781 5778 5775 5772 5769 5764 5760 5757 5753 5750 5747 5745 5742 5740 5738 5737 5736 5735 5732 5730 5728 5726 5724 5721 5717 5714 5710 5705 5701 5698 5696 5696 5696 5696 5696 5695 5695 5696 5697 5699 5702 5703 5706 5711 5714 5718 5723 5727 5730 5737
5849 5846 5845 5845 5844 5844 5845 5844 5841 5839 5837 5835 5833 5832 5830 5829 5827 5824 5822 5818 5815 5813 5811 5810 5807 5804 5802 5799 5796 5794 5791 5788 5785 5782 5779 5776 5773 5770 5767 5763 5759 5756 5752 5749 5745 5743 5741 5738 5736 5734 5733 5732 5731 5728 5726 5724 5721 5719 5716 5713 5709 5705 5699 5694 5690 5687 5687 5688 5688 5689 5688 5687 5688 5689 5691 5693 5695 5698 5703 5707 5711 5716 5720 5724 5730
5841 5838 5838 5840 5839 5839 5839 5837 5834 5832 5830 5829 5828 5827 5826 5824 5822 5819 5817 5813 5810 5808 5807 5805 5803 5801 5798 5795 5792 5790 5787 5783 5780 5777 5774 5771 5768 5765 5762 5758 5755 5752 5748 5744 5741 5740 5738 5735 5732 5730 5728 5727 5726 5724 5722 5720 5718 5715 5712 5708 5704 5700 5695 5690 5685 5682 5680 5679 5680 5681 5681 5680 5680 5682 5683 5684 5687 5691 5696 5700 5705 5710 5714 5719 5724
5835 5835 5835 5836 5836 5834 5833 5831 5828 5826 5825 5825 5824 5823 5821 5819 5817 5815 5811 5808 5805 5804 5802 5800 5798 5797 5794 5791 5788 5786 5783 5779 5776 5773 5770 5767 5764 5762 5758 5754 5751 5748 5744 5740 5738 5736 5734 5732 5730 5727 5725 5723 5721 5720 5718 5716 5714 5711 5708 5704 5700 5696 5691 5686 5682 5678 5675 5673 5672 5672 5673 5673 5672 5674 5675 5677 5680 5684 5689 5693 5698 5703 5708 5712 5717
5830 5831 5831 5831 5831 5830 5828 5826 5824 5822 5822 5821 5820 5818 5817 5815 5812 5809 5806 5803 5801 5799 5798 5796 5794 5792 5790 5787 5785 5782 5779 5776 5773 5769 5766 5763 5761 5758 5754 5751 5748 5744 5740 5736 5734 5732 5730 5728 5726 5724 5722 5719 5717 5716 5714 5712 5709 5706 5703 5700 5696 5692 5688 5682 5677 5673 5670 5668 5666 5664 5664 5664 5664 5666 5668 5670 5673 5677 5681 5686 5691 5696 5701 5706 5710
5826 5826 5826 5828 5828 5826 5823 5821 5820 5819 5818 5817 5816 5814 5812 5809 5807 5804 5800 5798 5796 5795 5793 5791 5789 5787 5785 5783 5781 5777 5775 5772 5769 5766 5762 5759 5756 5753 5750 5747 5744 5740 5736 5733 5730 5728 5726 5724 5723 5721 5719 5716 5714 5712 5710 5707 5705 5702 5700 5697 5693 5688 5684 5678 5673 5669 5664 5661 5659 5655 5655 5656 5656 5658 5661 5664 5667 5672 5675 5679 5684 5690 5696 5701 5706
5822 5822 5823 5824 5823 5821 5819 5817 5816 5815 5814 5813 5812 5809 5807 5804 5801 5798 5796 5794 5792 5790 5789 5787 5785 5783 5781 5779 5776 5773 5770 5767 5764 5761 5758 5755 5752 5748 5745 5743 5740 5736 5732 5728 5726 5724 5722 5720 5719 5717 5715 5713 5711 5708 5706 5703 5700 5698 5695 5693 5688 5684 5679 5674 5670 5665 5661 5656 5653 5649 5648 5649 5650 5652 5656 5659 5662 5666 5669 5675 5681 5686 5691 5697 5702
5819 5819 5819 5819 5818 5816 5814 5813 5812 5811 5810 5809 5807 5805 5801 5798 5796 5794 5792 5790 5788 5786 5784 5782 5780 5778 5776 5774 5771 5768 5765 5762 5759 5755 5752 5749 5746 5743 5740 5738 5735 5731 5727 5724 5722 5720 5718 5716 5715 5713 5711 5709 5707 5705 5702 5699 5696 5694 5691 5688 5684 5680 5675 5670 5666 5662 5658 5654 5649 5645 5644 5644 5646 5647 5651 5654 5657 5661 5666 5672 5678 5682 5687 5693 5698
5815 5815 5815 5814 5812 5810 5809 5807 5807 5806 5805 5804 5802 5799 5796 5793 5791 5790 5788 5786 5784 5782 5779 5777 5775 5772 5770 5768 5765 5762 5760 5757 5754 5750 5747 5744 5741 5738 5735 5732 5729 5726 5723 5720 5718 5716 5714 5712 5711 5709 5708 5706 5704 5701 5699 5696 5693 5690 5687 5684 5680 5676 5671 5666 5661 5657 5654 5650 5646 5642 5641 5642 5643 5644 5646 5650 5653 5657 5662 5668 5673 5678 5684 5689 5693
5811 5811 5810 5808 5806 5804 5803 5802 5801 5801 5800 5798 5796 5793 5790 5789 5788 5786 5784 5782 5780 5777 5774 5772 5770 5767 5765 5763 5759 5756 5754 5751 5748 5745 5742 5739 5735 5732 5729 5727 5724 5721 5718 5716 5714 5711 5710 5708 5707 5706 5704 5702 5700 5698 5695 5692 5689 5686 5683 5679 5676 5672 5667 5663 5657 5652 5648 5645 5641 5638 5638 5639 5640 5641 5643 5646 5649 5653 5658 5664 5669 5675 5680 5684 5688
5807 5806 5803 5802 5801 5799 5798 5798 5797 5796 5795 5793 5791 5788 5787 5786 5784 5782 5780 5777 5775 5772 5769 5767 5766 5763 5760 5757 5754 5751 5748 5745 5742 5739 5737 5734 5730 5727 5724 5722 5719 5716 5713 5712 5710 5708 5706 5705 5703 5702 5700 5699 5697 5694 5692 5689 5686 5683 5679 5675 5671 5667 5663 5659 5654 5650 5645 5641 5637 5635 5636 5637 5638 5639 5640 5643 5646 5650 5655 5661 5666 5670 5675 5680 5685
5802 5801 5798 5797 5797 5796 5795 5794 5793 5792 5790 5788 5786 5785 5783 5782 5780 5777 5775 5772 5769 5767 5764 5762 5761 5758 5755 5752 5749 5746 5742 5739 5735 5733 5730 5728 5725 5722 5719 5717 5714 5712 5710 5707 5706 5704 5703 5701 5700 5698 5697 5695 5693 5691 5688 5685 5682 5679 5676 5672 5668 5664 5659 5655 5651 5647 5642 5638 5635 5633 5634 5635 5636 5637 5639 5641 5644 5648 5653 5658 5662 5666 5671 5676 5681
5797 5795 5794 5794 5794 5793 5791 5789 5788 5786 5785 5783 5781 5780 5779 5777 5775 5773 5770 5766 5764 5761 5758 5756 5755 5753 5750 5746 5744 5741 5737 5734 5730 5727 5725 5723 5720 5717 5715 5712 5710 5708 5706 5704 5702 5701 5699 5698 5697 5695 5694 5692 5690 5688 5685 5683 5679 5676 5673 5670 5666 5662 5658 5653 5649 5644 5640 5636 5634 5632 5632 5633 5635 5636 5638 5640 5643 5646 5651 5655 5659 5663 5667 5672 5677
5793 5793 5792 5791 5790 5788 5785 5783 5781 5780 5779 5777 5776 5774 5773 5772 5770 5767 5764 5761 5759 5756 5753 5751 5749 5747 5745 5741 5738 5735 5732 5729 5726 5723 5721 5718 5716 5713 5710 5708 5705 5704 5702 5701 5699 5698 5696 5695 5694 5692 5690 5689 5687 5685 5683 5680 5677 5674 5671 5668 5665 5661 5657 5652 5647 5642 5638 5634 5632 5631 5631 5632 5634 5635 5637 5640 5642 5645 5649 5652 5656 5660 5664 5669 5673
5790 5789 5788 5786 5784 5782 5779 5777 5775 5774 5773 5771 5770 5769 5767 5765 5763 5761 5758 5756 5754 5751 5748 5746 5744 5741 5739 5736 5733 5730 5727 5724 5721 5719 5716 5714 5711 5708 5706 5703 5701 5700 5699 5697 5696 5695 5694 5693 5691 5689 5688 5686 5685 5683 5680 5678 5675 5672 5669 5667 5663 5659 5655 5650 5645 5640 5636 5632 5631 5630 5630 5631 5633 5635 5637 5640 5642 5645 5647 5651 5654 5658 5662 5666 5669
5785 5784 5783 5781 5778 5776 5773 5771 5770 5768 5767 5766 5764 5763 5761 5759 5757 5755 5753 5750 5747 5745 5742 5740 5738 5735 5732 5729 5726 5724 5721 5718 5716 5714 5712 5710 5707 5705 5702 5700 5698 5696 5695 5694 5693 5692 5691 5690 5688 5686 5685 5684 5682 5680 5678 5675 5673 5670 5668 5665 5662 5658 5654 5649 5644 5639 5634 5631 5629 5629 5629 5630 5632 5634 5636 5638 5641 5643 5646 5649 5652 5656 5660 5663 5667
5779 5778 5776 5775 5773 5771 5769 5767 5766 5764 5763 5762 5760 5759 5757 5754 5752 5749 5746 5743 5740 5738 5735 5733 5731 5729 5726 5723 5720 5718 5715 5713 5711 5709 5708 5706 5703 5701 5698 5696 5695 5693 5692 5691 5690 5689 5688 5687 5685 5684 5683 5681 5680 5677 5675 5673 5670 5668 5666 5663 5660 5657 5653 5648 5643 5638 5633 5630 5629 5628 5627 5629 5630 5632 5634 5637 5639 5642 5644 5648 5651 5654 5657 5661 5664
5773 5771 5770 5769 5768 5766 5765 5764 5763 5761 5760 5758 5756 5754 5752 5750 5747 5743 5739 5736 5733 5730 5727 5725 5723 5722 5720 5717 5715 5713 5710 5709 5707 5705 5704 5702 5700 5697 5695 5693 5692 5691 5690 5689 5687 5686 5685 5684 5683 5682 5681 5679 5677 5675 5673 5670 5668 5666 5664 5661 5659 5655 5651 5647 5643 5638 5634 5630 5628 5627 5626 5627 5628 5631 5633 5636 5638 5640 5643 5646 5649 5652 5654 5657 5660
5767 5766 5765 5765 5764 5763 5761 5760 5759 5758 5756 5753 5751 5748 5746 5743 5740 5735 5732 5729 5726 5723 5721 5719 5717 5715 5713 5711 5710 5708 5706 5705 5703 5702 5700 5698 5696 5694 5692 5691 5689 5688 5688 5687 5685 5684 5683 5682 5681 5679 5678 5676 5675 5673 5670 5668 5666 5665 5662 5660 5657 5654 5651 5648 5644 5640 5635 5631 5628 5627 5626 5625 5626 5629 5631 5634 5636 5639 5641 5643 5646 5649 5652 5654 5657
5761 5761 5761 5761 5760 5759 5757 5755 5754 5753 5750 5747 5745 5741 5738 5735 5732 5728 5726 5723 5720 5718 5716 5714 5712 5710 5708 5707 5705 5704 5702 5701 5700 5698 5697 5695 5693 5691 5689 5688 5686 5685 5685 5684 5683 5681 5680 5679 5678 5677 5675 5674 5672 5670 5668 5666 5665 5663 5661 5659 5656 5654 5651 5648 5644 5640 5636 5632 5629 5626 5625 5625 5625 5627 5629 5632 5635 5637 5640 5642 5644 5646 5649 5652 5655
5756 5755 5755 5755 5754 5752 5750 5747 5746 5744 5742 5741 5738 5734 5730 5728 5725 5723 5721 5718 5715 5713 5711 5709 5707 5705 5704 5702 5701 5700 5698 5697 5696 5695 5693 5691 5690 5688 5686 5684 5683 5682 5682 5681 5680 5679 5678 5676 5675 5674 5673 5671 5669 5668 5666 5664 5663 5662 5660 5658 5655 5653 5650 5647 5644 5640 5637 5634 5631 5627 5625 5624 5624 5626 5628 5630 5632 5635 5638 5640 5642 5644 5646 5649 5652
5749 5748 5748 5746 5744 5743 5741 5740 5738 5736 5734 5733 5732 5729 5725 5722 5720 5718 5716 5714 5711 5709 5707 5705 5704 5702 5700 5698 5696 5695 5694 5693 5692 5691 5689 5687 5686 5684 5682 5681 5679 5678 5678 5678 5677 5676 5675 5674 5672 5671 5670 5669 5667 5665 5664 5663 5661 5660 5659 5656 5654 5652 5649 5647 5644 5641 5639 5636 5633 5629 5626 5624 5623 5624 5627 5628 5630 5632 5635 5638 5640 5642 5644 5646 5649
5743 5742 5741 5738 5736 5734 5734 5733 5731 5730 5727 5726 5725 5724 5721 5718 5715 5713 5711 5709 5707 5705 5703 5701 5699 5698 5696 5694 5692 5691 5689 5688 5687 5686 5685 5684 5682 5681 5679 5677 5675 5675 5674 5674 5673 5672 5672 5670 5669 5668 5667 5666 5664 5663 5662 5661 5660 5658 5657 5655 5653 5651 5649 5646 5644 5642 5639 5637 5634 5631 5628 5625 5624 5624 5624 5626 5627 5630 5632 5634 5637 5639 5642 5643 5646
5737 5735 5734 5733 5731 5729 5728 5726 5724 5722 5720 5718 5717 5717 5716 5714 5711 5709 5706 5704 5703 5701 5699 5697 5695 5693 5691 5690 5689 5687 5685 5684 5683 5682 5681 5680 5679 5677 5676 5674 5673 5671 5670 5669 5669 5669 5668 5667 5666 5665 5664 5663 5662 5661 5660 5659 5657 5656 5655 5654 5652 5650 5648 5646 5643 5641 5639 5637 5634 5632 5630 5627 5625 5624 5624 5624 5625 5627 5630 5632 5634 5636 5638 5640 5642
5731 5729 5728 5727 5726 5725 5723 5721 5719 5717 5715 5712 5710 5709 5709 5708 5707 5704 5702 5700 5698 5697 5695 5692 5690 5688 5687 5686 5684 5683 5681 5680 5679 5678 5677 5676 5675 5674 5673 5672 5670 5668 5667 5666 5665 5664 5664 5663 5663 5662 5661 5660 5659 5658 5657 5656 5655 5654 5653 5652 5650 5649 5647 5645 5643 5641 5638 5636 5634 5633 5631 5629 5627 5625 5624 5623 5623 5625 5627 5629 5631 5632 5634 5635 5637
5725 5723 5722 5722 5721 5719 5717 5716 5714 5712 5710 5708 5705 5702 5701 5701 5701 5699 5697 5696 5694 5692 5690 5688 5685 5683 5682 5681 5680 5679 5677 5676 5675 5674 5673 5672 5672 5671 5670 5668 5667 5665 5664 5662 5661 5660 5660 5659 5659 5659 5658 5657 5656 5655 5654 5653 5653 5652 5651 5650 5649 5647 5645 5644 5642 5640 5638 5636 5634 5633 5632 5630 5628 5627 5625 5624 5623 5624 5625 5626 5628 5629 5630 5631 5633
5719 5718 5717 5716 5716 5714 5712 5710 5708 5706 5704 5703 5701 5698 5696 5695 5694 5693 5692 5691 5690 5688 5686 5683 5681 5679 5678 5677 5676 5675 5673 5672 5671 5670 5670 5669 5668 5667 5666 5665 5664 5662 5661 5659 5658 5657 5656 5656 5655 5655 5655 5654 5653 5652 5651 5651 5650 5649 5648 5648 5647 5645 5644 5642 5641 5639 5637 5635 5634 5633 5631 5630 5629 5628 5627 5625 5624 5623 5624 5624 5625 5626 5627 5627 5628
5714 5713 5711 5710 5709 5708 5706 5705 5703 5700 5698 5696 5694 5693 5691 5689 5688 5687 5686 5685 5684 5683 5681 5678 5676 5675 5673 5672 5671 5671 5669 5668 5668 5667 5666 5665 5664 5663 5662 5661 5659 5658 5657 5656 5655 5654 5653 5652 5652 5652 5651 5651 5650 5649 5649 5648 5647 5647 5646 5645 5644 5643 5642 5641 5640 5638 5637 5635 5633 5632 5631 5630 5629 5628 5627 5626 5625 5624 5623 5623 5623 5624 5625 5625 5625
5708 5707 5705 5704 5703 5701 5700 5698 5696 5695 5693 5690 5688 5687 5686 5684 5683 5682 5680 5679 5678 5678 5676 5674 5672 5670 5669 5668 5667 5666 5665 5664 5664 5663 5662 5661 5660 5659 5658 5657 5655 5654 5654 5653 5651 5650 5649 5649 5648 5648 5648 5647 5647 5646 5646 5645 5644 5644 5643 5642 5642 5641 5640 5639 5638 5637 5636 5634 5633 5631 5630 5629 5628 5627 5627 5626 5626 5625 5624 5623 5622 5622 5622 5623 5623
5702 5700 5699 5698 5697 5695 5693 5691 5690 5688 5686 5684 5683 5682 5681 5679 5678 5676 5675 5673 5672 5672 5671 5669 5667 5666 5664 5663 5662 5662 5661 5660 5660 5659 5658 5657 5656 5655 5654 5653 5652 5651 5650 5649 5648 5647 5646 5645 5645 5644 5644 5644 5644 5643 5642 5642 5641 5641 5640 5639 5639 5638 5638 5637 5636 5635 5634 5633 5632 5631 5629 5628 5627 5626 5626 5625 5625 5625 5625 5624 5623 5622 5622 5621 5621
5694 5693 5692 5691 5690 5689 5687 5685 5684 5682 5680 5678 5676 5675 5675 5674 5673 5671 5670 5669 5667 5667 5666 5664 5662 5661 5660 5659 5658 5657 5657 5656 5655 5655 5654 5653 5651 5650 5650 5649 5648 5647 5646 5645 5644 5644 5643 5642 5641 5641 5640 5640 5640 5640 5639 5639 5638 5638 5637 5637 5636 5635 5635 5634 5634 5633 5632 5631 5630 5629 5628 5628 5627 5626 5625 5624 5623 5623 5623 5623 5623 5623 5623 5622 5621
5688 5687 5686 5685 5684 5683 5681 5679 5677 5675 5673 5672 5670 5669 5668 5668 5667 5665 5664 5664 5663 5662 5661 5660 5657 5656 5655 5654 5653 5653 5653 5652 5651 5650 5649 5649 5647 5646 5646 5645 5645 5644 5642 5641 5641 5640 5639 5638 5638 5637 5637 5636 5636 5636 5636 5635 5635 5634 5634 5633 5633 5633 5632 5631 5631 5631 5630 5630 5629 5628 5627 5626 5626 5625 5624 5623 5622 5622 5621 5622 5622 5622 5623 5622 5622
5682 5681 5680 5679 5677 5675 5674 5672 5671 5669 5667 5666 5664 5662 5661 5661 5661 5660 5659 5658 5658 5658 5657 5655 5653 5652 5650 5650 5649 5649 5648 5648 5647 5646 5645 5644 5643 5643 5642 5642 5641 5640 5639 5638 5637 5637 5636 5635 5634 5633 5633 5632 5632 5632 5632 5632 5632 5631 5630 5630 5630 5630 5629 5629 5628 5628 5628 5627 5627 5626 5625 5624 5624 5623 5623 5622 5621 5621 5620 5620 5620 5621 5621 5621 5621
5676 5674 5672 5672 5670 5668 5666 5665 5664 5662 5661 5660 5659 5657 5656 5655 5655 5654 5654 5653 5653 5653 5652 5650 5648 5647 5646 5645 5644 5644 5644 5643 5642 5641 5641 5640 5639 5639 5638 5637 5636 5636 5635 5635 5634 5633 5633 5632 5631 5630 5630 5629 5628 5628 5628 5628 5628 5628 5627 5627 5626 5626 5626 5626 5625 5625 5625 5624 5624 5624 5623 5622 5622 5621 5621 5621 5620 5619 5619 5619 5619 5619 5619 5619 5620
5669 5667 5665 5664 5663 5661 5659 5657 5656 5655 5654 5654 5653 5652 5651 5650 5650 5649 5649 5648 5647 5647 5646 5646 5644 5643 5641 5641 5640 5639 5639 5638 5637 5636 5636 5636 5635 5635 5634 5633 5632 5632 5631 5631 5630 5630 5629 5628 5628 5627 5626 5626 5625 5625 5624 5624 5624 5624 5623 5623 5623 5622 5622 5622 5622 5621 5621 5621 5621 5621 5620 5620 5620 5619 5619 5619 5618 5618 5618 5617 5617 5617 5617 5618 5618
5661 5660 5659 5657 5656 5654 5652 5650 5649 5649 5648 5648 5647 5647 5646 5645 5644 5644 5644 5643 5642 5641 5640 5640 5640 5639 5638 5637 5636 5635 5634 5634 5632 5632 5631 5631 5631 5630 5630 5629 5628 5627 5627 5626 5626 5625 5625 5624 5624 5623 5622 5622 5621 5621 5620 5620 5620 5620 5619 5619 5619 5618 5618 5618 5618 5618 5618 5617 5617 5617 5617 5617 5617 5616 5616 5616 5616 5616 5616 5615 5615 5615 5615 5615 5616
5654 5654 5653 5651 5650 5648 5646 5645 5644 5643 5642 5642 5642 5641 5641 5640 5639 5639 5638 5637 5636 5635 5633 5633 5634 5634 5634 5633 5631 5630 5630 5630 5629 5627 5627 5627 5626 5626 5625 5624 5623 5623 5622 5621 5621 5620 5620 5620 5619 5618 5618 5617 5617 5617 5616 5616 5616 5615 5615 5615 5615 5614 5614 5614 5614 5614 5614 5614 5613 5613 5613 5613 5613 5613 5613 5613 5613 5613 5613 5613 5613 5613 5613 5613 5614
5648 5647 5646 5646 5645 5643 5642 5640 5639 5638 5637 5637 5637 5636 5635 5635 5634 5633 5632 5631 5630 5629 5628 5627 5627 5628 5628 5628 5627 5625 5625 5625 5624 5623 5623 5622 5621 5621 5620 5620 5619 5618 5617 5616 5616 5615 5615 5615 5614 5613 5613 5612 5612 5612 5612 5611 5611 5611 5611 5611 5611 5610 5610 5610 5610 5610 5609 5609 5609 5609 5609 5609 5610 5610 5610 5610 5610 5610 5610 5610 5610 5610 5611 5611 5611
5642 5642 5641 5640 5639 5638 5637 5636 5634 5633 5633 5632 5631 5631 5630 5629 5629 5628 5627 5626 5626 5625 5624 5623 5623 5623 5623 5623 5622 5621 5620 5620 5619 5619 5618 5617 5616 5616 5615 5614 5613 5613 5612 5611 5610 5610 5610 5610 5609 5608 5608 5608 5607 5607 5607 5607 5607 5606 5606 5606 5606 5606 5606 5606 5605 5605 5605 5605 5605 5605 5605 5605 5606 5606 5606 5606 5606 5606 5606 5606 5606 5607 5607 5608 5608
5637 5636 5635 5634 5633 5632 5631 5630 5629 5628 5628 5627 5626 5625 5624 5623 5623 5622 5622 5621 5621 5620 5619 5618 5618 5618 5618 5618 5618 5617 5616 5615 5615 5614 5614 5612 5611 5610 5610 5609 5608 5607 5606 5605 5605 5604 5604 5604 5604 5603 5603 5603 5603 5603 5603 5602 5602 5602 5602 5601 5601 5601 5601 5601 5601 5601 5601 5601 5600 5600 5601 5601 5601 5601 5602 5602 5602 5602 5602 5602 5603 5603 5603 5604 5605
5631 5630 5629 5628 5627 5626 5625 5624 5624 5623 5622 5621 5621 5620 5618 5617 5617 5616 5616 5616 5615 5615 5614 5613 5613 5613 5613 5613 5613 5612 5612 5611 5610 5610 5609 5607 5606 5605 5605 5604 5603 5602 5601 5601 5600 5600 5600 5600 5599 5598 5598 5598 5599 5599 5599 5598 5598 5598 5598 5597 5597 5597 5597 5597 5597 5597 5597 5597 5597 5597 5596 5597 5597 5597 5598 5598 5598 5598 5598 5599 5599 5599 5600 5600 5600